Location: Newark
(53.7833°N, 9.4833°E)
Time: 05:52:34
(UTC+00:00)

ISS - Visible Passes

Search period start: 08 December 2019 00:00
Search period end: 18 December 2019 00:00
Orbit: 411 x 421 km, 51.6° (Epoch: 08 December)

Date Brightness Start Highest point End Pass type
(mag) Time Alt. Az. Time Alt. Az. Time Alt. Az.
08 Dec -2.7 15:49:12 10° W 15:52:26 46° SSW 15:55:41 10° ESE visible
08 Dec -1.1 17:26:21 10° WSW 17:28:39 17° SW 17:30:57 10° S visible
09 Dec -1.4 16:37:38 10° W 16:40:22 23° SSW 16:43:07 10° SSE visible
10 Dec -1.8 15:49:03 10° W 15:52:03 30° SSW 15:55:03 10° SE visible
11 Dec -0.6 16:38:09 10° WSW 16:39:46 13° SW 16:41:24 10° S visible
12 Dec -0.7 15:49:07 10° WSW 15:51:30 18° SSW 15:53:52 10° SSE visible
